Content
SEND FEEDBACK

Daily
Averages
Monthly
Summary
United States of America

NEVADA CITY, CALIFORNIA


Home > North America > United States > California
Elevation: 2934 feet     Latitude: 39 18N     Longitude: 121 00W

WEATHER
 
SELECT A DAY
Number of Records: 69,255;   Date Range: 9/21/11 - 11/22/14
 
SHARE

PRINT THIS DATA

[ ← Previous Day ]
WEATHER ALMANAC - JANUARY 1, 2013
[ Next Day → ]
[ °C ]   °F
Weather ElementAverageHighLow
Temperature39.8 °F50 °F (3:35 pm)30.2 °F (6:35 am)
Dewpoint22.3 °F30.2 °F (1:55 am)8.6 °F (10:35 pm)
Humidity55.3 %93 % (1:55 am)23 % (10:35 pm)
Barometer30.19 in30.22 in (11:15 pm)30.17 in (4:55 pm)
Wind Speed3.5 mph13.8 mph (6:55 pm)
Weather ElementAverage
Visibility9.9 mi
Wind DirectionENE (73.4 °)

Weather ElementTotal
Precipitation---
Heating Degree Days24.9 (Base 65)
Averaged from 67 records on January 1, 2013
WEATHER CONDITIONS BREAKOUT
WIND DIRECTION BREAKOUT
WEATHER BY HOUR - JANUARY 1, 2013
[ °C ]   °F
Local TimeTemperatureDewpointHumidityBarometerVisibilityWind DirectionWind SpeedGust SpeedPrecipitationEventsConditions
12:35 AM32.0 °F28.4 °F87 %30.18 in10.0 miCalmClear
12:55 AM32.0 °F28.4 °F87 %30.19 in10.0 miCalmPartly Cloudy
1:15 AM32.0 °F28.4 °F87 %30.19 in10.0 miCalmMostly Cloudy
1:35 AM32.0 °F28.4 °F87 %30.19 in10.0 miCalmMostly Cloudy
1:55 AM32.0 °F30.2 °F93 %30.19 in10.0 miCalmOvercast
2:15 AM33.8 °F30.2 °F87 %30.20 in10.0 miCalmOvercast
2:35 AM33.8 °F30.2 °F87 %30.20 in10.0 miCalmOvercast
2:55 AM35.6 °F30.2 °F81 %30.20 in10.0 miCalmOvercast
3:15 AM33.8 °F30.2 °F87 %30.20 in10.0 miEast (80°)3.5 mphOvercast
3:35 AM33.8 °F30.2 °F87 %30.20 in10.0 miEast (90°)4.6 mphOvercast
4:15 AM32.0 °F30.2 °F93 %30.20 in10.0 miCalmMostly Cloudy
4:35 AM32.0 °F28.4 °F87 %30.19 in10.0 miCalmPartly Cloudy
4:55 AM32.0 °F26.6 °F80 %30.19 in10.0 miEast (100°)4.6 mphClear
5:15 AM32.0 °F26.6 °F80 %30.19 in10.0 miCalmClear
5:35 AM32.0 °F26.6 °F80 %30.19 in10.0 miCalmClear
5:55 AM32.0 °F26.6 °F80 %30.19 in10.0 miCalmClear
6:15 AM32.0 °F26.6 °F80 %30.19 in10.0 miNNE (30°)3.5 mphClear
6:35 AM30.2 °F26.6 °F86 %30.20 in10.0 miNNE (20°)3.5 mphClear
6:55 AM30.2 °F26.6 °F86 %30.19 in10.0 miNorth (10°)3.5 mphClear
7:15 AM30.2 °F26.6 °F86 %30.19 in10.0 miNNE (20°)3.5 mphClear
7:35 AM30.2 °F26.6 °F86 %30.19 in10.0 miCalmClear
8:15 AM33.8 °F26.6 °F75 %30.18 in10.0 miCalmClear
8:35 AM35.6 °F26.6 °F70 %30.18 in10.0 miCalmClear
8:55 AM37.4 °F26.6 °F65 %30.18 in10.0 miCalmClear
9:15 AM37.4 °F26.6 °F65 %30.18 in10.0 miCalmClear
9:35 AM37.4 °F26.6 °F65 %30.19 in10.0 miCalmClear
10:15 AM39.2 °F26.6 °F61 %30.21 in10.0 miNW (320°)4.6 mphClear
10:35 AM39.2 °F26.6 °F61 %30.20 in10.0 miCalmClear
10:55 AM41.0 °F26.6 °F57 %30.20 in10.0 miWNW (300°)3.5 mphClear
11:15 AM41.0 °F26.6 °F57 %30.20 in10.0 miWest (270°)3.5 mphClear
11:35 AM41.0 °F26.6 °F57 %30.20 in10.0 miWNW (300°)6.9 mphClear
11:55 AM42.8 °F26.6 °F53 %30.19 in10.0 miWest (280°)5.8 mphClear
12:15 PM41.0 °F26.6 °F57 %30.20 in10.0 miWNW (300°)5.8 mphClear
12:35 PM42.8 °F26.6 °F53 %30.20 in10.0 miWNW (290°)3.5 mphClear
12:55 PM42.8 °F26.6 °F53 %30.19 in10.0 miCalmClear
1:15 PM44.6 °F28.4 °F53 %30.19 in10.0 miCalmClear
1:35 PM44.6 °F28.4 °F53 %30.18 in10.0 miCalmClear
1:55 PM46.4 °F28.4 °F50 %30.18 in10.0 miCalmClear
2:15 PM46.4 °F26.6 °F46 %30.19 in10.0 miCalmClear
2:35 PM46.4 °F28.4 °F50 %30.19 in10.0 miNNE (20°)4.6 mphClear
2:55 PM46.4 °F28.4 °F50 %30.19 in10.0 miNNW (340°)4.6 mphClear
3:15 PM48.2 °F28.4 °F46 %30.18 in10.0 miCalmClear
3:35 PM50.0 °F28.4 °F43 %30.18 in7.0 miEast (90°)5.8 mphClear
3:55 PM50.0 °F21.2 °F32 %30.18 in7.0 miEast (90°)8.1 mphClear
4:15 PM48.2 °F15.8 °F27 %30.18 in10.0 miESE (110°)5.8 mphClear
4:35 PM48.2 °F15.8 °F27 %30.18 in10.0 miENE (60°)4.6 mphClear
4:55 PM46.4 °F15.8 °F29 %30.17 in10.0 miENE (70°)6.9 mphClear
5:15 PM44.6 °F15.8 °F31 %30.17 in10.0 miENE (70°)5.8 mphClear
5:35 PM44.6 °F15.8 °F31 %30.18 in10.0 miENE (60°)6.9 mphClear
5:55 PM44.6 °F14.0 °F29 %30.18 in10.0 miENE (60°)6.9 mphClear
6:15 PM42.8 °F14.0 °F31 %30.18 in10.0 miEast (80°)8.1 mphClear
6:35 PM42.8 °F14.0 °F31 %30.18 in10.0 miEast (90°)10.4 mphClear
6:55 PM44.6 °F12.2 °F27 %30.18 in10.0 miEast (80°)13.8 mphClear
7:15 PM44.6 °F12.2 °F27 %30.18 in10.0 miESE (120°)4.6 mphClear
7:35 PM44.6 °F10.4 °F25 %30.18 in10.0 miEast (100°)8.1 mphClear
7:55 PM44.6 °F10.4 °F25 %30.18 in10.0 miEast (90°)9.2 mphClear
8:35 PM44.6 °F10.4 °F25 %30.20 in10.0 miENE (70°)6.9 mphClear
8:55 PM44.6 °F10.4 °F25 %30.21 in10.0 miCalmClear
9:15 PM44.6 °F10.4 °F25 %30.20 in10.0 miEast (90°)10.4 mphClear
9:35 PM44.6 °F10.4 °F25 %30.20 in10.0 miESE (110°)6.9 mphClear
9:55 PM44.6 °F10.4 °F25 %30.21 in10.0 miEast (90°)10.4 mphClear
10:15 PM44.6 °F10.4 °F25 %30.21 in10.0 miEast (100°)4.6 mphClear
10:35 PM44.6 °F8.6 °F23 %30.21 in10.0 miESE (110°)8.1 mphClear
10:55 PM44.6 °F8.6 °F23 %30.21 in10.0 miESE (110°)5.8 mphClear
11:15 PM41.0 °F10.4 °F29 %30.22 in10.0 miSE (140°)3.5 mphClear
11:35 PM39.2 °F14.0 °F36 %30.22 in10.0 miSSE (160°)4.6 mphClear
11:55 PM39.2 °F14.0 °F36 %30.22 in10.0 miCalmClear
Hourly data recorded from KGOO, located miles away from Nevada City, California







STORIES FROM OUR PARTNERS